This is the latest recevied weather packets stored in our database for station/object KC5TIL-3. If no packets are shown the sender has not sent any weather packets the latest 10 day(s).
| Time | Temp. | Humidity | Pressure | Rain* | Wind** | Luminosity | Snow |
|---|---|---|---|---|---|---|---|
| 1777845546 | 26.67° C | 14% | 1013.8 hPa | 0 mm | 3.13 m/s, 156° | - | - |
| 1777845245 | 26.67° C | 14% | 1013.8 hPa | 0 mm | 3.58 m/s, 201° | - | - |
| 1777844649 | 26.67° C | 14% | 1014.8 hPa | 0 mm | 3.58 m/s, 180° | - | - |
| 1777844343 | 26.11° C | 14% | 1014.8 hPa | 0 mm | 4.02 m/s, 129° | - | - |
| 1777844041 | 26.67° C | 14% | 1014.8 hPa | 0 mm | 4.47 m/s, 198° | - | - |
| 1777843742 | 26.11° C | 12% | 1014.8 hPa | 0 mm | 3.13 m/s, 188° | - | - |
| 1777842839 | 27.22° C | 14% | 1014.8 hPa | 0 mm | 2.24 m/s, 176° | - | - |
| 1777842239 | 27.22° C | 14% | 1014.8 hPa | 0 mm | 3.58 m/s, 216° | - | - |
| 1777841941 | 26.11° C | 15% | 1014.8 hPa | 0 mm | 5.36 m/s, 222° | - | - |
| 1777841341 | 26.11° C | 15% | 1014.8 hPa | 0 mm | 5.36 m/s, 211° | - | - |
| 1777841043 | 26.11° C | 15% | 1014.8 hPa | 0 mm | 3.58 m/s, 188° | - | - |
| 1777840439 | 27.22° C | 14% | 1015.8 hPa | 0 mm | 3.58 m/s, 202° | - | - |
| 1777840140 | 26.67° C | 14% | 1015.8 hPa | 0 mm | 3.13 m/s, 204° | - | - |
| 1777839536 | 27.22° C | 14% | 1015.8 hPa | 0 mm | 2.24 m/s, 158° | - | - |
| 1777839232 | 26.67° C | 14% | 1015.8 hPa | 0 mm | 4.02 m/s, 104° | - | - |
| 1777838632 | 26.67° C | 14% | 1015.8 hPa | 0 mm | 3.58 m/s, 201° | - | - |
| 1777837734 | 26.11° C | 15% | 1015.8 hPa | 0 mm | 3.13 m/s, 217° | - | - |
| 1777837436 | 26.11° C | 14% | 1015.8 hPa | 0 mm | 4.92 m/s, 169° | - | - |
| 1777836836 | 26.11° C | 15% | 1016.8 hPa | 0 mm | 2.24 m/s, 212° | - | - |
| 1777836538 | 26.67° C | 14% | 1016.8 hPa | 0 mm | 3.13 m/s, 131° | - | - |
| 1777836237 | 26.67° C | 14% | 1016.8 hPa | 0 mm | 1.79 m/s, 248° | - | - |
| 1777835939 | 26.67° C | 14% | 1016.8 hPa | 0 mm | 2.68 m/s, 198° | - | - |
| 1777835635 | 25.56° C | 15% | 1016.8 hPa | 0 mm | 4.47 m/s, 209° | - | - |
| 1777835330 | 26.11° C | 15% | 1016.8 hPa | 0 mm | 4.02 m/s, 204° | - | - |
| 1777834733 | 26.11° C | 14% | 1016.8 hPa | 0 mm | 3.58 m/s, 181° | - | - |
* Rain latest hour (hover to see other rain measurements)
** Current wind speed in m/s (hover to see current wind gust speed)